Year,Month,Day,Hour,Minute,Value (Times are PST for temperature in C)
2009,07,28,00,00,20.50
2009,07,28,00,01,20.40
2009,07,28,00,02,20.30
2009,07,28,00,03,20.30
2009,07,28,00,04,20.20
2009,07,28,00,05,20.20
2009,07,28,00,06,20.20
2009,07,28,00,07,20.20
2009,07,28,00,08,20.20
2009,07,28,00,09,20.20
2009,07,28,00,10,20.20
2009,07,28,00,11,20.20
2009,07,28,00,12,20.20
2009,07,28,00,13,20.20
2009,07,28,00,14,20.20
2009,07,28,00,15,20.20
2009,07,28,00,16,20.30
2009,07,28,00,17,20.30
2009,07,28,00,18,20.30
2009,07,28,00,19,20.40
2009,07,28,00,20,20.40
2009,07,28,00,21,20.40
2009,07,28,00,22,20.40
2009,07,28,00,23,20.40
2009,07,28,00,24,20.40
2009,07,28,00,25,20.50
2009,07,28,00,26,20.50
2009,07,28,00,27,20.50
2009,07,28,00,28,20.50
2009,07,28,00,29,20.50
2009,07,28,00,30,20.50
2009,07,28,00,31,20.50
2009,07,28,00,32,20.50
2009,07,28,00,33,20.50
2009,07,28,00,34,20.50
2009,07,28,00,35,20.50
2009,07,28,00,36,20.40
2009,07,28,00,37,20.40
2009,07,28,00,38,20.30
2009,07,28,00,39,20.30
2009,07,28,00,40,20.30
2009,07,28,00,41,20.20
2009,07,28,00,42,20.20
2009,07,28,00,43,20.20
2009,07,28,00,44,20.10
2009,07,28,00,45,20.00
2009,07,28,00,46,19.90
2009,07,28,00,47,19.90
2009,07,28,00,48,19.90
2009,07,28,00,49,19.80
2009,07,28,00,50,19.70
2009,07,28,00,51,19.70
2009,07,28,00,52,19.60
2009,07,28,00,53,19.50
2009,07,28,00,54,19.50
2009,07,28,00,55,19.40
2009,07,28,00,56,19.40
2009,07,28,00,57,19.40
2009,07,28,00,58,19.30
2009,07,28,00,59,19.30
2009,07,28,01,00,19.20
2009,07,28,01,01,19.20
2009,07,28,01,02,19.20
2009,07,28,01,03,19.20
2009,07,28,01,04,19.10
2009,07,28,01,05,19.10
2009,07,28,01,06,19.10
2009,07,28,01,07,19.10
2009,07,28,01,08,19.10
2009,07,28,01,09,19.10
2009,07,28,01,10,19.10
2009,07,28,01,11,19.10
2009,07,28,01,12,19.10
2009,07,28,01,13,19.10
2009,07,28,01,14,19.10
2009,07,28,01,15,19.10
2009,07,28,01,16,19.10
2009,07,28,01,17,19.10
2009,07,28,01,18,19.10
2009,07,28,01,19,19.10
2009,07,28,01,20,19.10
2009,07,28,01,21,19.10
2009,07,28,01,22,19.10
2009,07,28,01,23,19.10
2009,07,28,01,24,19.10
2009,07,28,01,25,19.10
2009,07,28,01,26,19.10
2009,07,28,01,27,19.10
2009,07,28,01,28,19.10
2009,07,28,01,29,19.10
2009,07,28,01,30,19.10
2009,07,28,01,31,19.10
2009,07,28,01,32,19.10
2009,07,28,01,33,19.10
2009,07,28,01,34,19.10
2009,07,28,01,35,19.10
2009,07,28,01,36,19.10
2009,07,28,01,37,19.10
2009,07,28,01,38,19.10
2009,07,28,01,39,19.10
2009,07,28,01,40,19.10
2009,07,28,01,41,19.10
2009,07,28,01,42,19.10
2009,07,28,01,43,19.10
2009,07,28,01,44,19.10
2009,07,28,01,45,19.10
2009,07,28,01,46,19.20
2009,07,28,01,47,19.20
2009,07,28,01,48,19.20
2009,07,28,01,49,19.20
2009,07,28,01,50,19.20
2009,07,28,01,51,19.20
2009,07,28,01,52,19.20
2009,07,28,01,53,19.20
2009,07,28,01,54,19.20
2009,07,28,01,55,19.20
2009,07,28,01,56,19.10
2009,07,28,01,57,19.10
2009,07,28,01,58,19.10
2009,07,28,01,59,19.10
2009,07,28,02,00,19.10
2009,07,28,02,01,19.10
2009,07,28,02,02,19.10
2009,07,28,02,03,19.10
2009,07,28,02,04,19.10
2009,07,28,02,05,19.10
2009,07,28,02,06,19.00
2009,07,28,02,07,18.90
2009,07,28,02,08,18.90
2009,07,28,02,09,18.90
2009,07,28,02,10,18.90
2009,07,28,02,11,18.90
2009,07,28,02,12,18.90
2009,07,28,02,13,18.90
2009,07,28,02,14,18.80
2009,07,28,02,15,18.80
2009,07,28,02,16,18.80
2009,07,28,02,17,18.80
2009,07,28,02,18,18.80
2009,07,28,02,19,18.80
2009,07,28,02,20,18.80
2009,07,28,02,21,18.80
2009,07,28,02,22,18.80
2009,07,28,02,23,18.80
2009,07,28,02,24,18.70
2009,07,28,02,25,18.70
2009,07,28,02,26,18.70
2009,07,28,02,27,18.70
2009,07,28,02,28,18.60
2009,07,28,02,29,18.60
2009,07,28,02,30,18.60
2009,07,28,02,31,18.60
2009,07,28,02,32,18.60
2009,07,28,02,33,18.50
2009,07,28,02,34,18.50
2009,07,28,02,35,18.50
2009,07,28,02,36,18.50
2009,07,28,02,37,18.50
2009,07,28,02,38,18.50
2009,07,28,02,39,18.50
2009,07,28,02,40,18.50
2009,07,28,02,41,18.50
2009,07,28,02,42,18.50
2009,07,28,02,43,18.50
2009,07,28,02,44,18.40
2009,07,28,02,45,18.40
2009,07,28,02,46,18.40
2009,07,28,02,47,18.40
2009,07,28,02,48,18.40
2009,07,28,02,49,18.40
2009,07,28,02,50,18.40
2009,07,28,02,51,18.40
2009,07,28,02,52,18.40
2009,07,28,02,53,18.40
2009,07,28,02,54,18.40
2009,07,28,02,55,18.40
2009,07,28,02,56,18.40
2009,07,28,02,57,18.40
2009,07,28,02,58,18.30
2009,07,28,02,59,18.30
2009,07,28,03,00,18.30
2009,07,28,03,01,18.30
2009,07,28,03,02,18.20
2009,07,28,03,03,18.20
2009,07,28,03,04,18.20
2009,07,28,03,05,18.20
2009,07,28,03,06,18.20
2009,07,28,03,07,18.20
2009,07,28,03,08,18.20
2009,07,28,03,09,18.20
2009,07,28,03,10,18.20
2009,07,28,03,11,18.20
2009,07,28,03,12,18.20
2009,07,28,03,13,18.20
2009,07,28,03,14,18.20
2009,07,28,03,15,18.20
2009,07,28,03,16,18.20
2009,07,28,03,17,18.20
2009,07,28,03,18,18.20
2009,07,28,03,19,18.20
2009,07,28,03,20,18.20
2009,07,28,03,21,18.20
2009,07,28,03,22,18.20
2009,07,28,03,23,18.20
2009,07,28,03,24,18.20
2009,07,28,03,25,18.20
2009,07,28,03,26,18.20
2009,07,28,03,27,18.20
2009,07,28,03,28,18.30
2009,07,28,03,29,18.30
2009,07,28,03,30,18.30
2009,07,28,03,31,18.30
2009,07,28,03,32,18.30
2009,07,28,03,33,18.30
2009,07,28,03,34,18.30
2009,07,28,03,35,18.30
2009,07,28,03,36,18.30
2009,07,28,03,37,18.30
2009,07,28,03,38,18.30
2009,07,28,03,39,18.30
2009,07,28,03,40,18.30
2009,07,28,03,41,18.30
2009,07,28,03,42,18.30
2009,07,28,03,43,18.30
2009,07,28,03,44,18.30
2009,07,28,03,45,18.30
2009,07,28,03,46,18.20
2009,07,28,03,47,18.20
2009,07,28,03,48,18.20
2009,07,28,03,49,18.20
2009,07,28,03,50,18.20
2009,07,28,03,51,18.20
2009,07,28,03,52,18.20
2009,07,28,03,53,18.20
2009,07,28,03,54,18.20
2009,07,28,03,55,18.20
2009,07,28,03,56,18.20
2009,07,28,03,57,18.20
2009,07,28,03,58,18.20
2009,07,28,03,59,18.20
2009,07,28,04,00,18.20
2009,07,28,04,01,18.10
2009,07,28,04,02,18.10
2009,07,28,04,03,18.10
2009,07,28,04,04,18.10
2009,07,28,04,05,18.00
2009,07,28,04,06,17.90
2009,07,28,04,07,17.90
2009,07,28,04,08,17.90
2009,07,28,04,09,17.90
2009,07,28,04,10,17.90
2009,07,28,04,11,17.90
2009,07,28,04,12,17.90
2009,07,28,04,13,17.90
2009,07,28,04,14,17.90
2009,07,28,04,15,17.90
2009,07,28,04,16,17.90
2009,07,28,04,17,17.90
2009,07,28,04,18,17.90
2009,07,28,04,19,17.80
2009,07,28,04,20,17.80
2009,07,28,04,21,17.80
2009,07,28,04,22,17.70
2009,07,28,04,23,17.70
2009,07,28,04,24,17.70
2009,07,28,04,25,17.70
2009,07,28,04,26,17.70
2009,07,28,04,27,17.60
2009,07,28,04,28,17.60
2009,07,28,04,29,17.60
2009,07,28,04,30,17.60
2009,07,28,04,31,17.50
2009,07,28,04,32,17.50
2009,07,28,04,33,17.50
2009,07,28,04,34,17.50
2009,07,28,04,35,17.50
2009,07,28,04,36,17.50
2009,07,28,04,37,17.40
2009,07,28,04,38,17.40
2009,07,28,04,39,17.40
2009,07,28,04,40,17.40
2009,07,28,04,41,17.40
2009,07,28,04,42,17.40
2009,07,28,04,43,17.40
2009,07,28,04,44,17.40
2009,07,28,04,45,17.40
2009,07,28,04,46,17.40
2009,07,28,04,47,17.40
2009,07,28,04,48,17.40
2009,07,28,04,49,17.40
2009,07,28,04,50,17.40
2009,07,28,04,51,17.40
2009,07,28,04,52,17.40
2009,07,28,04,53,17.40
2009,07,28,04,54,17.40
2009,07,28,04,55,17.40
2009,07,28,04,56,17.40
2009,07,28,04,57,17.50
2009,07,28,04,58,17.50
2009,07,28,04,59,17.50
2009,07,28,05,00,17.50
2009,07,28,05,01,17.50
2009,07,28,05,02,17.50
2009,07,28,05,03,17.50
2009,07,28,05,04,17.50
2009,07,28,05,05,17.50
2009,07,28,05,06,17.50
2009,07,28,05,07,17.50
2009,07,28,05,08,17.50
2009,07,28,05,09,17.50
2009,07,28,05,10,17.50
2009,07,28,05,11,17.50
2009,07,28,05,12,17.50
2009,07,28,05,13,17.50
2009,07,28,05,14,17.50
2009,07,28,05,15,17.50
2009,07,28,05,16,17.50
2009,07,28,05,17,17.50
2009,07,28,05,18,17.50
2009,07,28,05,19,17.40
2009,07,28,05,20,17.40
2009,07,28,05,21,17.40
2009,07,28,05,22,17.40
2009,07,28,05,23,17.40
2009,07,28,05,24,17.30
2009,07,28,05,25,17.30
2009,07,28,05,26,17.30
2009,07,28,05,27,17.30
2009,07,28,05,28,17.30
2009,07,28,05,29,17.30
2009,07,28,05,30,17.30
2009,07,28,05,31,17.30
2009,07,28,05,32,17.30
2009,07,28,05,33,17.30
2009,07,28,05,34,17.30
2009,07,28,05,35,17.20
2009,07,28,05,36,17.20
2009,07,28,05,37,17.20
2009,07,28,05,38,17.20
2009,07,28,05,39,17.10
2009,07,28,05,40,17.10
2009,07,28,05,41,17.10
2009,07,28,05,42,17.10
2009,07,28,05,43,17.10
2009,07,28,05,44,17.10
2009,07,28,05,45,17.10
2009,07,28,05,46,17.10
2009,07,28,05,47,17.10
2009,07,28,05,48,17.10
2009,07,28,05,49,17.10
2009,07,28,05,50,17.10
2009,07,28,05,51,17.10
2009,07,28,05,52,17.10
2009,07,28,05,53,17.10
2009,07,28,05,54,17.10
2009,07,28,05,55,17.10
2009,07,28,05,56,17.10
2009,07,28,05,57,17.10
2009,07,28,05,58,17.10
2009,07,28,05,59,17.10
2009,07,28,06,00,17.10
2009,07,28,06,01,17.20
2009,07,28,06,02,17.20
2009,07,28,06,03,17.20
2009,07,28,06,04,17.20
2009,07,28,06,05,17.20
2009,07,28,06,06,17.20
2009,07,28,06,07,17.20
2009,07,28,06,08,17.20
2009,07,28,06,09,17.20
2009,07,28,06,10,17.30
2009,07,28,06,11,17.30
2009,07,28,06,12,17.30
2009,07,28,06,13,17.30
2009,07,28,06,14,17.30
2009,07,28,06,15,17.30
2009,07,28,06,16,17.40
2009,07,28,06,17,17.40
2009,07,28,06,18,17.50
2009,07,28,06,19,17.50
2009,07,28,06,20,17.60
2009,07,28,06,21,17.60
2009,07,28,06,22,17.70
2009,07,28,06,23,17.70
2009,07,28,06,24,17.70
2009,07,28,06,25,17.70
2009,07,28,06,26,17.70
2009,07,28,06,27,17.70
2009,07,28,06,28,17.80
2009,07,28,06,29,17.80
2009,07,28,06,30,17.90
2009,07,28,06,31,18.00
2009,07,28,06,32,18.10
2009,07,28,06,33,18.20
2009,07,28,06,34,18.20
2009,07,28,06,35,18.30
2009,07,28,06,36,18.40
2009,07,28,06,37,18.50
2009,07,28,06,38,18.50
2009,07,28,06,39,18.60
2009,07,28,06,40,18.70
2009,07,28,06,41,18.80
2009,07,28,06,42,18.80
2009,07,28,06,43,18.90
2009,07,28,06,44,19.10
2009,07,28,06,45,19.20
2009,07,28,06,46,19.30
2009,07,28,06,47,19.40
2009,07,28,06,48,19.50
2009,07,28,06,49,19.60
2009,07,28,06,50,19.70
2009,07,28,06,51,19.80
2009,07,28,06,52,19.80
2009,07,28,06,53,19.90
2009,07,28,06,54,20.00
2009,07,28,06,55,20.10
2009,07,28,06,56,20.20
2009,07,28,06,57,20.30
2009,07,28,06,58,20.40
2009,07,28,06,59,20.50
2009,07,28,07,00,20.70
2009,07,28,07,01,20.80
2009,07,28,07,02,20.90
2009,07,28,07,03,21.00
2009,07,28,07,04,21.10
2009,07,28,07,05,21.20
2009,07,28,07,06,21.30
2009,07,28,07,07,21.30
2009,07,28,07,08,21.40
2009,07,28,07,09,21.50
2009,07,28,07,10,21.60
2009,07,28,07,11,21.60
2009,07,28,07,12,21.70
2009,07,28,07,13,21.80
2009,07,28,07,14,21.90
2009,07,28,07,15,21.90
2009,07,28,07,16,22.00
2009,07,28,07,17,22.00
2009,07,28,07,18,22.10
2009,07,28,07,19,22.10
2009,07,28,07,20,22.10
2009,07,28,07,21,22.20
2009,07,28,07,22,22.20
2009,07,28,07,23,22.20
2009,07,28,07,24,22.20
2009,07,28,07,25,22.20
2009,07,28,07,26,22.20
2009,07,28,07,27,22.20
2009,07,28,07,28,22.20
2009,07,28,07,29,22.20
2009,07,28,07,30,22.20
2009,07,28,07,31,22.20
2009,07,28,07,32,22.20
2009,07,28,07,33,22.20
2009,07,28,07,34,22.20
2009,07,28,07,35,22.20
2009,07,28,07,36,22.10
2009,07,28,07,37,22.10
2009,07,28,07,38,22.10
2009,07,28,07,39,22.10
2009,07,28,07,40,22.10
2009,07,28,07,41,22.10
2009,07,28,07,42,22.10
2009,07,28,07,43,22.00
2009,07,28,07,44,22.00
2009,07,28,07,45,22.00
2009,07,28,07,46,22.00
2009,07,28,07,47,22.00
2009,07,28,07,48,22.00
2009,07,28,07,49,22.00
2009,07,28,07,50,22.00
2009,07,28,07,51,22.00
2009,07,28,07,52,21.90
2009,07,28,07,53,21.90
2009,07,28,07,54,21.80
2009,07,28,07,55,21.80
2009,07,28,07,56,21.80
2009,07,28,07,57,21.70
2009,07,28,07,58,21.70
2009,07,28,07,59,21.70
2009,07,28,08,00,21.60
2009,07,28,08,01,21.60
2009,07,28,08,02,21.60
2009,07,28,08,03,21.60
2009,07,28,08,04,21.60
2009,07,28,08,05,21.60
2009,07,28,08,06,21.60
2009,07,28,08,07,21.60
2009,07,28,08,08,21.60
2009,07,28,08,09,21.70
2009,07,28,08,10,21.70
2009,07,28,08,11,21.80
2009,07,28,08,12,21.80
2009,07,28,08,13,21.90
2009,07,28,08,14,22.00
2009,07,28,08,15,22.00
2009,07,28,08,16,22.00
2009,07,28,08,17,22.00
2009,07,28,08,18,22.00
2009,07,28,08,19,22.00
2009,07,28,08,20,22.00
2009,07,28,08,21,22.00
2009,07,28,08,22,22.00
2009,07,28,08,23,21.90
2009,07,28,08,24,21.90
2009,07,28,08,25,21.90
2009,07,28,08,26,21.90
2009,07,28,08,27,21.90
2009,07,28,08,28,21.90
2009,07,28,08,29,21.90
2009,07,28,08,30,22.00
2009,07,28,08,31,22.00
2009,07,28,08,32,22.10
2009,07,28,08,33,22.20
2009,07,28,08,34,22.20
2009,07,28,08,35,22.30
2009,07,28,08,36,22.30
2009,07,28,08,37,22.30
2009,07,28,08,38,22.40
2009,07,28,08,39,22.40
2009,07,28,08,40,22.40
2009,07,28,08,41,22.50
2009,07,28,08,42,22.50
2009,07,28,08,43,22.50
2009,07,28,08,44,22.60
2009,07,28,08,45,22.60
2009,07,28,08,46,22.70
2009,07,28,08,47,22.80
2009,07,28,08,48,22.80
2009,07,28,08,49,22.80
2009,07,28,08,50,22.80
2009,07,28,08,51,22.80
2009,07,28,08,52,22.90
2009,07,28,08,53,22.90
2009,07,28,08,54,22.80
2009,07,28,08,55,22.80
2009,07,28,08,56,22.80
2009,07,28,08,57,22.80
2009,07,28,08,58,22.70
2009,07,28,08,59,22.70
2009,07,28,09,00,22.80
2009,07,28,09,01,22.80
2009,07,28,09,02,22.90
2009,07,28,09,03,22.90
2009,07,28,09,04,22.90
2009,07,28,09,05,22.90
2009,07,28,09,06,23.00
2009,07,28,09,07,23.10
2009,07,28,09,08,23.20
2009,07,28,09,09,23.30
2009,07,28,09,10,23.40
2009,07,28,09,11,23.40
2009,07,28,09,12,23.40
2009,07,28,09,13,23.30
2009,07,28,09,14,23.30
2009,07,28,09,15,23.30
2009,07,28,09,16,23.30
2009,07,28,09,17,23.20
2009,07,28,09,18,23.20
2009,07,28,09,19,23.20
2009,07,28,09,20,23.20
2009,07,28,09,21,23.20
2009,07,28,09,22,23.20
2009,07,28,09,23,23.20
2009,07,28,09,24,23.30
2009,07,28,09,25,23.30
2009,07,28,09,26,23.30
2009,07,28,09,27,23.30
2009,07,28,09,28,23.40
2009,07,28,09,29,23.50
2009,07,28,09,30,23.60
2009,07,28,09,31,23.60
2009,07,28,09,32,23.70
2009,07,28,09,33,23.70
2009,07,28,09,34,23.70
2009,07,28,09,35,23.80
2009,07,28,09,36,23.80
2009,07,28,09,37,23.80
2009,07,28,09,38,23.80
2009,07,28,09,39,23.80
2009,07,28,09,40,23.90
2009,07,28,09,41,23.90
2009,07,28,09,42,24.00
2009,07,28,09,43,24.10
2009,07,28,09,44,24.10
2009,07,28,09,45,24.10
2009,07,28,09,46,24.10
2009,07,28,09,47,24.20
2009,07,28,09,48,24.20
2009,07,28,09,49,24.30
2009,07,28,09,50,24.30
2009,07,28,09,51,24.40
2009,07,28,09,52,24.40
2009,07,28,09,53,24.30
2009,07,28,09,54,24.30
2009,07,28,09,55,24.20
2009,07,28,09,56,24.10
2009,07,28,09,57,24.10
2009,07,28,09,58,24.20
2009,07,28,09,59,24.20
2009,07,28,10,00,24.30
2009,07,28,10,01,24.30
2009,07,28,10,02,24.20
2009,07,28,10,03,24.20
2009,07,28,10,04,24.20
2009,07,28,10,05,24.20
2009,07,28,10,06,24.20
2009,07,28,10,07,24.30
2009,07,28,10,08,24.20
2009,07,28,10,09,24.10
2009,07,28,10,10,24.10
2009,07,28,10,11,24.10
2009,07,28,10,12,24.10
2009,07,28,10,13,24.10
2009,07,28,10,14,24.10
2009,07,28,10,15,24.20
2009,07,28,10,16,24.20
2009,07,28,10,17,24.30
2009,07,28,10,18,24.30
2009,07,28,10,19,24.40
2009,07,28,10,20,24.40
2009,07,28,10,21,24.40
2009,07,28,10,22,24.40
2009,07,28,10,23,24.50
2009,07,28,10,24,24.50
2009,07,28,10,25,24.50
2009,07,28,10,26,24.50
2009,07,28,10,27,24.50
2009,07,28,10,28,24.40
2009,07,28,10,29,24.40
2009,07,28,10,30,24.40
2009,07,28,10,31,24.40
2009,07,28,10,32,24.40
2009,07,28,10,33,24.40
2009,07,28,10,34,24.40
2009,07,28,10,35,24.30
2009,07,28,10,36,24.30
2009,07,28,10,37,24.40
2009,07,28,10,38,24.50
2009,07,28,10,39,24.50
2009,07,28,10,40,24.50
2009,07,28,10,41,24.40
2009,07,28,10,42,24.40
2009,07,28,10,43,24.40
2009,07,28,10,44,24.50
2009,07,28,10,45,24.50
2009,07,28,10,46,24.60
2009,07,28,10,47,24.70
2009,07,28,10,48,24.70
2009,07,28,10,49,24.80
2009,07,28,10,50,24.80
2009,07,28,10,51,24.80
2009,07,28,10,52,24.70
2009,07,28,10,53,24.70
2009,07,28,10,54,24.60
2009,07,28,10,55,24.70
2009,07,28,10,56,24.80
2009,07,28,10,57,24.80
2009,07,28,10,58,24.90
2009,07,28,10,59,24.90
2009,07,28,11,00,24.90
2009,07,28,11,01,24.90
2009,07,28,11,02,24.90
2009,07,28,11,03,24.90
2009,07,28,11,04,24.90
2009,07,28,11,05,24.90
2009,07,28,11,06,25.00
2009,07,28,11,07,25.10
2009,07,28,11,08,25.20
2009,07,28,11,09,25.20
2009,07,28,11,10,25.30
2009,07,28,11,11,25.40
2009,07,28,11,12,25.40
2009,07,28,11,13,25.60
2009,07,28,11,14,25.70
2009,07,28,11,15,25.80
2009,07,28,11,16,25.90
2009,07,28,11,17,25.90
2009,07,28,11,18,26.00
2009,07,28,11,19,26.00
2009,07,28,11,20,26.00
2009,07,28,11,21,26.10
2009,07,28,11,22,26.10
2009,07,28,11,23,26.10
2009,07,28,11,24,26.10
2009,07,28,11,25,26.10
2009,07,28,11,26,26.10
2009,07,28,11,27,26.00
2009,07,28,11,28,26.00
2009,07,28,11,29,26.00
2009,07,28,11,30,26.00
2009,07,28,11,31,26.10
2009,07,28,11,32,26.10
2009,07,28,11,33,26.20
2009,07,28,11,34,26.30
2009,07,28,11,35,26.40
2009,07,28,11,36,26.50
2009,07,28,11,37,26.60
2009,07,28,11,38,26.60
2009,07,28,11,39,26.70
2009,07,28,11,40,26.70
2009,07,28,11,41,26.80
2009,07,28,11,42,26.90
2009,07,28,11,43,27.00
2009,07,28,11,44,27.10
2009,07,28,11,45,26.90
2009,07,28,11,46,26.90
2009,07,28,11,47,26.80
2009,07,28,11,48,26.70
2009,07,28,11,49,26.70
2009,07,28,11,50,26.70
2009,07,28,11,51,26.80
2009,07,28,11,52,26.80
2009,07,28,11,53,26.80
2009,07,28,11,54,26.90
2009,07,28,11,55,27.00
2009,07,28,11,56,27.10
2009,07,28,11,57,27.20
2009,07,28,11,58,27.30
2009,07,28,11,59,27.30
2009,07,28,12,00,27.40
2009,07,28,12,01,27.40
2009,07,28,12,02,27.40
2009,07,28,12,03,27.50
2009,07,28,12,04,27.60
2009,07,28,12,05,27.70
2009,07,28,12,06,27.70
2009,07,28,12,07,27.80
2009,07,28,12,08,27.80
2009,07,28,12,09,27.80
2009,07,28,12,10,27.80
2009,07,28,12,11,27.80
2009,07,28,12,12,27.80
2009,07,28,12,13,27.80
2009,07,28,12,14,27.70
2009,07,28,12,15,27.70
2009,07,28,12,16,27.60
2009,07,28,12,17,27.60
2009,07,28,12,18,27.70
2009,07,28,12,19,27.80
2009,07,28,12,20,27.90
2009,07,28,12,21,27.90
2009,07,28,12,22,28.00
2009,07,28,12,23,28.00
2009,07,28,12,24,28.00
2009,07,28,12,25,28.10
2009,07,28,12,26,28.10
2009,07,28,12,27,28.20
2009,07,28,12,28,28.30
2009,07,28,12,29,28.40
2009,07,28,12,30,28.50
2009,07,28,12,31,28.60
2009,07,28,12,32,28.60
2009,07,28,12,33,28.60
2009,07,28,12,34,28.60
2009,07,28,12,35,28.60
2009,07,28,12,36,28.60
2009,07,28,12,37,28.60
2009,07,28,12,38,28.60
2009,07,28,12,39,28.70
2009,07,28,12,40,28.70
2009,07,28,12,41,28.70
2009,07,28,12,42,28.60
2009,07,28,12,43,28.60
2009,07,28,12,44,28.60
2009,07,28,12,45,28.60
2009,07,28,12,46,28.60
2009,07,28,12,47,28.70
2009,07,28,12,48,28.80
2009,07,28,12,49,28.80
2009,07,28,12,50,28.80
2009,07,28,12,51,28.80
2009,07,28,12,52,28.90
2009,07,28,12,53,28.90
2009,07,28,12,54,28.80
2009,07,28,12,55,28.70
2009,07,28,12,56,28.70
2009,07,28,12,57,28.70
2009,07,28,12,58,28.70
2009,07,28,12,59,28.70
2009,07,28,13,00,28.80
2009,07,28,13,01,28.80
2009,07,28,13,02,28.90
2009,07,28,13,03,28.80
2009,07,28,13,04,28.80
2009,07,28,13,05,28.80
2009,07,28,13,06,28.90
2009,07,28,13,07,28.80
2009,07,28,13,08,28.80
2009,07,28,13,09,28.80
2009,07,28,13,10,28.80
2009,07,28,13,11,28.80
2009,07,28,13,12,28.80
2009,07,28,13,13,28.80
2009,07,28,13,14,28.80
2009,07,28,13,15,28.80
2009,07,28,13,16,28.80
2009,07,28,13,17,28.80
2009,07,28,13,18,28.80
2009,07,28,13,19,28.90
2009,07,28,13,20,28.90
2009,07,28,13,21,29.00
2009,07,28,13,22,29.10
2009,07,28,13,23,29.10
2009,07,28,13,24,29.10
2009,07,28,13,25,29.20
2009,07,28,13,26,29.20
2009,07,28,13,27,29.30
2009,07,28,13,28,29.20
2009,07,28,13,29,29.30
2009,07,28,13,30,29.40
2009,07,28,13,31,29.40
2009,07,28,13,32,29.50
2009,07,28,13,33,29.60
2009,07,28,13,34,29.70
2009,07,28,13,35,29.70
2009,07,28,13,36,29.80
2009,07,28,13,37,29.90
2009,07,28,13,38,29.90
2009,07,28,13,39,29.90
2009,07,28,13,40,29.90
2009,07,28,13,41,29.90
2009,07,28,13,42,29.90
2009,07,28,13,43,29.80
2009,07,28,13,44,29.70
2009,07,28,13,45,29.70
2009,07,28,13,46,29.70
2009,07,28,13,47,29.60
2009,07,28,13,48,29.60
2009,07,28,13,49,29.60
2009,07,28,13,50,29.60
2009,07,28,13,51,29.70
2009,07,28,13,52,29.70
2009,07,28,13,53,29.70
2009,07,28,13,54,29.80
2009,07,28,13,55,29.90
2009,07,28,13,56,30.00
2009,07,28,13,57,30.10
2009,07,28,13,58,30.10
2009,07,28,13,59,30.10
2009,07,28,14,00,30.10
2009,07,28,14,01,30.10
2009,07,28,14,02,30.10
2009,07,28,14,03,30.10
2009,07,28,14,04,30.10
2009,07,28,14,05,30.20
2009,07,28,14,06,30.30
2009,07,28,14,07,30.30
2009,07,28,14,08,30.30
2009,07,28,14,09,30.40
2009,07,28,14,10,30.50
2009,07,28,14,11,30.60
2009,07,28,14,12,30.60
2009,07,28,14,13,30.70
2009,07,28,14,14,30.80
2009,07,28,14,15,30.90
2009,07,28,14,16,30.90
2009,07,28,14,17,30.90
2009,07,28,14,18,30.90
2009,07,28,14,19,31.00
2009,07,28,14,20,31.00
2009,07,28,14,21,31.00
2009,07,28,14,22,31.00
2009,07,28,14,23,30.90
2009,07,28,14,24,30.90
2009,07,28,14,25,30.90
2009,07,28,14,26,30.90
2009,07,28,14,27,30.90
2009,07,28,14,28,30.90
2009,07,28,14,29,31.00
2009,07,28,14,30,31.00
2009,07,28,14,31,31.00
2009,07,28,14,32,31.10
2009,07,28,14,33,31.00
2009,07,28,14,34,31.00
2009,07,28,14,35,31.00
2009,07,28,14,36,30.90
2009,07,28,14,37,30.90
2009,07,28,14,38,30.90
2009,07,28,14,39,30.90
2009,07,28,14,40,30.90
2009,07,28,14,41,30.80
2009,07,28,14,42,30.80
2009,07,28,14,43,30.80
2009,07,28,14,44,30.90
2009,07,28,14,45,30.90
2009,07,28,14,46,30.90
2009,07,28,14,47,30.90
2009,07,28,14,48,30.90
2009,07,28,14,49,30.90
2009,07,28,14,50,30.80
2009,07,28,14,51,30.80
2009,07,28,14,52,30.70
2009,07,28,14,53,30.70
2009,07,28,14,54,30.60
2009,07,28,14,55,30.60
2009,07,28,14,56,30.60
2009,07,28,14,57,30.60
2009,07,28,14,58,30.60
2009,07,28,14,59,30.60
2009,07,28,15,00,30.60
2009,07,28,15,01,30.60
2009,07,28,15,02,30.60
2009,07,28,15,03,30.60
2009,07,28,15,04,30.70
2009,07,28,15,05,30.80
2009,07,28,15,06,30.80
2009,07,28,15,07,30.90
2009,07,28,15,08,31.00
2009,07,28,15,09,31.00
2009,07,28,15,10,31.10
2009,07,28,15,11,31.10
2009,07,28,15,12,31.10
2009,07,28,15,13,31.10
2009,07,28,15,14,31.10
2009,07,28,15,15,31.10
2009,07,28,15,16,31.10
2009,07,28,15,17,31.10
2009,07,28,15,18,31.20
2009,07,28,15,19,31.20
2009,07,28,15,20,31.10
2009,07,28,15,21,31.10
2009,07,28,15,22,31.10
2009,07,28,15,23,31.10
2009,07,28,15,24,31.10
2009,07,28,15,25,31.10
2009,07,28,15,26,31.10
2009,07,28,15,27,31.10
2009,07,28,15,28,31.00
2009,07,28,15,29,31.00
2009,07,28,15,30,31.00
2009,07,28,15,31,31.00
2009,07,28,15,32,31.00
2009,07,28,15,33,31.00
2009,07,28,15,34,31.00
2009,07,28,15,35,31.00
2009,07,28,15,36,31.00
2009,07,28,15,37,31.00
2009,07,28,15,38,31.00
2009,07,28,15,39,31.00
2009,07,28,15,40,31.00
2009,07,28,15,41,31.10
2009,07,28,15,42,31.20
2009,07,28,15,43,31.30
2009,07,28,15,44,31.40
2009,07,28,15,45,31.40
2009,07,28,15,46,31.40
2009,07,28,15,47,31.40
2009,07,28,15,48,31.40
2009,07,28,15,49,31.40
2009,07,28,15,50,31.40
2009,07,28,15,51,31.50
2009,07,28,15,52,31.40
2009,07,28,15,53,31.50
2009,07,28,15,54,31.60
2009,07,28,15,55,31.60
2009,07,28,15,56,31.60
2009,07,28,15,57,31.60
2009,07,28,15,58,31.60
2009,07,28,15,59,31.70
2009,07,28,16,00,31.70
2009,07,28,16,01,31.70
2009,07,28,16,02,31.70
2009,07,28,16,03,31.70
2009,07,28,16,04,31.80
2009,07,28,16,05,31.80
2009,07,28,16,06,31.90
2009,07,28,16,07,31.90
2009,07,28,16,08,32.00
2009,07,28,16,09,32.10
2009,07,28,16,10,32.20
2009,07,28,16,11,32.20
2009,07,28,16,12,32.20
2009,07,28,16,13,32.20
2009,07,28,16,14,32.20
2009,07,28,16,15,32.30
2009,07,28,16,16,32.30
2009,07,28,16,17,32.40
2009,07,28,16,18,32.40
2009,07,28,16,19,32.40
2009,07,28,16,20,32.40
2009,07,28,16,21,32.40
2009,07,28,16,22,32.40
2009,07,28,16,23,32.40
2009,07,28,16,24,32.50
2009,07,28,16,25,32.50
2009,07,28,16,26,32.40
2009,07,28,16,27,32.40
2009,07,28,16,28,32.40
2009,07,28,16,29,32.30
2009,07,28,16,30,32.30
2009,07,28,16,31,32.30
2009,07,28,16,32,32.30
2009,07,28,16,33,32.30
2009,07,28,16,34,32.30
2009,07,28,16,35,32.40
2009,07,28,16,36,32.40
2009,07,28,16,37,32.40
2009,07,28,16,38,32.40
2009,07,28,16,39,32.40
2009,07,28,16,40,32.40
2009,07,28,16,41,32.40
2009,07,28,16,42,32.40
2009,07,28,16,43,32.40
2009,07,28,16,44,32.40
2009,07,28,16,45,32.40
2009,07,28,16,46,32.40
2009,07,28,16,47,32.50
2009,07,28,16,48,32.50
2009,07,28,16,49,32.50
2009,07,28,16,50,32.50
2009,07,28,16,51,32.50
2009,07,28,16,52,32.50
2009,07,28,16,53,32.50
2009,07,28,16,54,32.50
2009,07,28,16,55,32.50
2009,07,28,16,56,32.50
2009,07,28,16,57,32.50
2009,07,28,16,58,32.50
2009,07,28,16,59,32.50
2009,07,28,17,00,32.50
2009,07,28,17,01,32.60
2009,07,28,17,02,32.60
2009,07,28,17,03,32.60
2009,07,28,17,04,32.60
2009,07,28,17,05,32.80
2009,07,28,17,06,32.90
2009,07,28,17,07,32.90
2009,07,28,17,08,32.90
2009,07,28,17,09,33.00
2009,07,28,17,10,33.00
2009,07,28,17,11,33.00
2009,07,28,17,12,33.00
2009,07,28,17,13,33.00
2009,07,28,17,14,33.10
2009,07,28,17,15,33.20
2009,07,28,17,16,33.40
2009,07,28,17,17,33.40
2009,07,28,17,18,33.40
2009,07,28,17,19,33.40